Location: Newark
(45.4041°N, 17.9426°E)
Time: 13:15:56
(UTC+00:00)

Envisat - Pass Details

Date: 27 September 2019
Orbit: 764 x 766 km, 98.1° (Epoch: 21 October)

Event Time Altitude Azimuth Distance (km) Brightness Sun altitude
Rises 18:23:42 0° 217° (SW) 3,222 6.5 -19.3°
Reaches altitude 10° 18:27:15 10° 243° (WSW) 2,302 6.1 -19.9°
Maximum altitude 18:29:43 14° 272° (W) 2,068 6.2 -20.3°
Drops below altitude 10° 18:32:12 10° 302° (WNW) 2,310 6.6 -20.7°
Sets 18:35:47 0° 328° (NNW) 3,242 7.1 -21.3°
